TimeCDT,TemperatureF,Dew PointF,Humidity,Sea Level PressureIn,VisibilityMPH,Wind Direction,Wind SpeedMPH,Gust SpeedMPH,PrecipitationIn,Events,Conditions,WindDirDegrees,DateUTC
12:56 AM,78.1,72.0,81,29.88,10.0,SSW,3.5,-,N/A,,Clear,210,2013-09-02 05:56:00
1:56 AM,77.0,73.0,88,29.88,10.0,Calm,Calm,-,N/A,,Clear,0,2013-09-02 06:56:00
2:56 AM,75.9,73.0,91,29.89,10.0,Calm,Calm,-,N/A,,Clear,0,2013-09-02 07:56:00
3:56 AM,75.9,73.0,91,29.89,10.0,Calm,Calm,-,N/A,,Clear,0,2013-09-02 08:56:00
4:56 AM,75.0,73.0,94,29.90,10.0,Calm,Calm,-,N/A,,Clear,0,2013-09-02 09:56:00
5:56 AM,75.0,73.0,94,29.91,10.0,Calm,Calm,-,N/A,,Partly Cloudy,0,2013-09-02 10:56:00
6:56 AM,75.0,73.9,96,29.92,10.0,Calm,Calm,-,N/A,,Mostly Cloudy,0,2013-09-02 11:56:00
7:23 AM,75.2,73.4,94,29.94,10.0,West,3.5,-,N/A,,Partly Cloudy,270,2013-09-02 12:23:00
7:56 AM,78.1,75.0,90,29.94,10.0,Variable,3.5,-,N/A,,Clear,0,2013-09-02 12:56:00
8:56 AM,82.9,75.0,77,29.95,10.0,Variable,4.6,-,N/A,,Clear,0,2013-09-02 13:56:00
9:56 AM,87.1,73.0,63,29.96,10.0,West,10.4,16.1,N/A,,Clear,280,2013-09-02 14:56:00
10:56 AM,90.0,71.1,54,29.97,10.0,Variable,4.6,-,N/A,,Partly Cloudy,0,2013-09-02 15:56:00
11:56 AM,93.0,68.0,44,29.95,10.0,Variable,5.8,-,N/A,,Partly Cloudy,0,2013-09-02 16:56:00
12:56 PM,93.9,66.0,40,29.93,10.0,Variable,4.6,-,N/A,,Partly Cloudy,0,2013-09-02 17:56:00
1:56 PM,97.0,64.0,34,29.90,10.0,Variable,3.5,-,N/A,,Scattered Clouds,0,2013-09-02 18:56:00
2:56 PM,99.0,66.0,34,29.87,10.0,Variable,5.8,-,N/A,,Mostly Cloudy,0,2013-09-02 19:56:00
3:56 PM,98.1,64.9,34,29.84,10.0,NE,5.8,-,N/A,,Overcast,40,2013-09-02 20:56:00
4:41 PM,93.2,66.2,41,29.85,10.0,Calm,Calm,-,0.00,Rain-Thunderstorm,Light Thunderstorms and Rain,0,2013-09-02 21:41:00
4:51 PM,78.8,73.4,83,29.88,1.5,North,9.2,19.6,0.20,Rain,Heavy Rain,10,2013-09-02 21:51:00
4:56 PM,77.0,73.0,88,29.87,1.5,North,9.2,17.3,0.23,Rain,Heavy Rain,350,2013-09-02 21:56:00
5:02 PM,78.8,71.6,78,29.87,3.0,NNE,9.2,20.7,0.03,Rain,Rain,30,2013-09-02 22:02:00
5:56 PM,82.0,73.9,76,29.86,10.0,Calm,Calm,-,0.04,Thunderstorm,Thunderstorm,0,2013-09-02 22:56:00
6:17 PM,82.4,75.2,79,29.87,10.0,Calm,Calm,-,N/A,,Scattered Clouds,0,2013-09-02 23:17:00
6:56 PM,81.0,75.0,82,29.86,10.0,Calm,Calm,-,N/A,,Clear,0,2013-09-02 23:56:00
7:56 PM,79.0,78.1,97,29.85,9.0,Calm,Calm,-,N/A,,Clear,0,2013-09-03 00:56:00
8:56 PM,77.0,75.9,96,29.86,7.0,Calm,Calm,-,N/A,,Clear,0,2013-09-03 01:56:00
9:56 PM,77.0,73.0,88,29.89,10.0,Calm,Calm,-,N/A,,Clear,0,2013-09-03 02:56:00
10:56 PM,75.9,73.0,91,29.90,10.0,Calm,Calm,-,N/A,,Clear,0,2013-09-03 03:56:00
11:56 PM,75.0,73.0,94,29.91,10.0,Calm,Calm,-,N/A,,Clear,0,2013-09-03 04:56:00